欧洲卫星公司-9星 (SES-9)

导读

SES 9卫星由SES发射,于2016年3月4日08:00发射升空。该卫星是SES公司的通信卫星,主要服务区域覆盖亚太地区,可提供电视广播、宽带网络等通信服务,提升了区域内通信覆盖能力与信号传输质量,为相关地区的媒体传输、应急通信等领域提供了有力支撑。

Basic Information
目录编号:
41380
目录名称:
SES 9
国际标识:
2016-013A
轨道中心:
EARTH
卫星名称:
欧洲卫星公司-9星
卫星全名:
欧洲卫星公司-9星 (SES-9)
卫星状态:
在轨 (已飞行3797 天)
发射日期:
2016-03-04 UTC
国别 :
(SES)
星等 :
--
Orbit Information
数据来源 国际轨道数据 AOE轨道数据
星历时间 2026-07-27T22:04:16+0800
8小时前
查看轨道信息
2026-07-26T00:00:00+0800
2天前
查看轨道信息
半长轴 42164.728km 42164.784km
偏心率 0.0002413 0.0002412
轨道倾角 0.021° 0.013°
近地点辐角 141.667° 117.951°
升交点赤经 327.299° 348.868°
平近点角 155.671° 184.855°
近地点 35776.416km 35776.476km
远地点 35796.766km 35796.818km
周期 1436.097分钟 1436.100分钟
每日圈数 1.002718 1.002716
Detailed Information
卫星平台:
BSS-702HP
平衡模式:
三轴稳定
覆盖范围:
大西洋
运营商:
欧洲卫星公司
运营商所在国:
卢森堡
制造商(研发单位):
波音公司
制造商所在国:
美国
使用方式:
暂无
Satellite Introduction
欧洲卫星公司:成立于1985年,总部设在卢森堡。该公司通过运营ASTRA、AMERICOM及 NEW SKIES卫星系统为客户提供电视、广播和多媒体直接到户的信息传送服务,是世界第二大卫星运营商。该卫星仍在工作。
2D Orbit Map
3D Orbit Map
Orbit Altitude Analysis Chart
Orbit Inclination Analysis Chart
Orbit Comprehensive Analysis Chart
View Comprehensive Chart